This demonstration page uses our WeatherBlox Daily Observations layout. Learn more.

Left ArrowRight Arrow

39.29038, -76.61219

Hourly Observations for May 15, 2021

Temp ( °F °C ) Dew Point ( °F °C ) Humidity (%) Winds ( mph kmh ) Pressure ( in mb ) Visibility ( mi km ) Precip ( " mm )
12:54 am 00:54 Clear 50 10 41 5 71 71 W 3 6 30.21 1023 10 16 N/A
1:54 am 01:54 Clear 52 11.1 39 3.9 61 61 W 3 6 30.21 1023 10 16 N/A
2:54 am 02:54 Clear 50 10 39 3.9 66 66 WSW 5 7 30.20 1023 10 16 N/A
3:54 am 03:54 Clear 50 10 39 3.9 66 66 W 3 6 30.20 1023 10 16 N/A
4:54 am 04:54 Clear 49 9.4 39 3.9 69 69 W 3 6 30.21 1023 10 16 N/A
5:54 am 05:54 Sunny 45 7.2 40 4.4 83 83 WSW 3 6 30.22 1023 10 16 N/A
6:54 am 06:54 Mostly Sunny 49 9.4 41 5 74 74 N N/A 30.23 1024 10 16 N/A
7:54 am 07:54 Sunny 60 15.6 44 6.7 56 56 N N/A 30.24 1024 10 16 N/A
8:54 am 08:54 Sunny 67 19.4 40 4.4 37 37 NE 5 7 30.24 1024 10 16 N/A
9:54 am 09:54 Sunny 71 21.7 37 2.8 29 29 NE 5 7 30.24 1024 10 16 N/A
10:54 am 10:54 Mostly Sunny 74 23.3 36 2.2 25 25 ENE 3 6 30.24 1024 10 16 N/A
11:54 am 11:54 Partly Cloudy 76 24.4 32 undefined 20 20 SE 3 6 30.25 1024 10 16 N/A
12:54 pm 12:54 Partly Cloudy 78 25.6 32 undefined 19 19 NE 10 17 30.24 1024 10 16 N/A
1:54 pm 13:54 Mostly Cloudy 76 24.4 30 -1.1 18 18 undefined N/A 30.22 1023 10 16 N/A
2:54 pm 14:54 Partly Cloudy 78 25.6 32 undefined 19 19 NE 10 17 30.21 1023 10 16 N/A
3:54 pm 15:54 Partly Cloudy 78 25.6 30 -1.1 17 17 E 8 13 30.18 1022 10 16 N/A
4:54 pm 16:54 Partly Cloudy 78 25.6 31 -0.6 18 18 VRB 5 7 30.18 1022 10 16 N/A
5:54 pm 17:54 Partly Cloudy 76 24.4 31 -0.6 19 19 ESE 8 13 30.18 1022 10 16 N/A
6:54 pm 18:54 Mostly Sunny 74 23.3 33 0.6 22 22 ESE 6 9 30.18 1022 10 16 N/A
7:54 pm 19:54 Mostly Cloudy 72 22.2 35 1.7 26 26 ESE 6 9 30.19 1022 10 16 N/A
8:54 pm 20:54 Mostly Cloudy 69 20.6 33 0.6 26 26 SE 7 11 30.20 1023 10 16 N/A
9:54 pm 21:54 Mostly Cloudy 65 18.3 34 1.1 32 32 N N/A 30.22 1023 10 16 N/A
10:54 pm 22:54 Mostly Clear 61 16.1 42 5.6 50 50 N N/A 30.22 1024 10 16 N/A
11:54 pm 23:54 Mostly Clear 60 15.6 45 7.2 58 58 N N/A 30.22 1024 10 16 N/A

Powered by AerisWeather